Theta_e
311 311 310 310 309 309 309 309 310 310 310 310 310 310 310 309 308 315 317 317 319 321 332 337 341 343 344 346 345 346 356 359 354 353 353 346 343 344 341 340 344 344 339 337 338
315 313 311 309 309 309 309 310 310 310 310 311 311 310 310 309 319 317 315 315 318 320 335 338 340 341 348 345 345 350 357 358 354 352 353 350 343 345 342 344 345 341 339 337 340
317 314 311 310 309 310 310 310 310 310 310 311 311 311 310 311 326 323 314 317 319 323 332 336 335 343 346 345 348 350 356 353 354 352 350 350 346 345 344 346 343 343 340 341 342
315 313 311 310 310 310 311 312 311 310 311 312 311 311 310 325 328 326 315 318 319 323 329 331 336 347 348 349 348 350 349 349 351 350 352 352 348 347 344 346 341 341 341 342 343
317 315 312 311 311 312 313 313 313 312 314 312 311 312 322 331 330 330 314 319 321 318 326 332 334 347 349 349 349 350 349 349 349 351 352 351 350 349 346 345 341 341 342 343 343
318 318 315 312 312 312 313 313 315 315 313 312 312 317 329 330 330 332 324 323 322 320 325 329 334 341 349 350 353 349 350 349 349 350 351 352 351 347 347 344 342 342 343 343 343
318 319 317 315 313 312 313 313 315 315 313 313 314 324 329 329 329 328 325 322 322 322 328 328 341 345 348 354 351 352 354 352 348 348 351 348 352 352 347 345 343 343 344 344 344
318 318 319 317 314 313 313 314 314 317 315 315 319 328 329 329 328 322 320 321 320 322 325 324 325 338 349 350 352 352 352 357 351 350 349 348 355 350 348 347 344 344 345 345 345
320 319 319 319 316 314 313 320 316 316 316 316 328 328 330 326 326 320 319 319 320 323 323 321 333 344 348 351 351 352 353 354 357 350 352 347 352 348 348 348 347 344 345 346 346
319 320 318 319 318 315 315 320 317 318 320 325 326 330 326 325 325 323 321 321 323 323 321 325 343 348 348 349 348 349 349 352 354 353 351 350 346 346 346 349 347 345 345 346 347
318 318 319 319 319 315 316 323 328 329 327 328 328 327 326 323 322 323 323 324 322 323 329 327 338 342 343 344 345 345 345 349 353 352 351 352 350 348 346 350 349 346 345 345 346
316 317 318 319 320 314 317 325 323 321 325 324 324 326 326 322 323 325 324 324 324 328 328 330 333 336 335 339 344 344 343 350 354 353 352 353 352 350 350 348 349 348 346 345 344
315 317 318 319 319 314 320 322 320 319 327 327 327 327 327 325 323 324 324 322 324 326 327 331 331 327 329 335 338 339 337 344 350 353 352 352 352 354 350 345 347 346 348 346 345
314 317 317 319 314 317 319 321 319 318 330 328 327 328 327 326 324 324 322 322 321 324 326 327 329 328 326 330 332 334 335 339 349 348 350 351 352 353 353 352 351 348 348 348 348
314 317 317 318 322 320 319 317 319 322 334 326 327 326 327 326 324 323 323 321 321 321 322 324 325 326 326 329 329 334 340 343 345 342 341 349 346 354 352 355 353 350 349 348 347
315 317 318 319 318 319 315 316 321 331 333 328 326 327 326 326 325 323 322 323 324 325 324 326 326 326 328 332 332 340 343 345 345 341 343 340 337 343 346 350 351 351 350 349 348
315 318 318 318 321 315 316 323 329 332 330 330 327 326 327 327 326 325 324 324 325 325 325 326 327 326 329 340 341 339 336 341 343 345 342 343 339 338 344 349 348 349 348 349 348
316 318 317 317 319 317 318 326 327 330 331 329 327 326 327 327 327 326 326 326 325 324 326 327 330 330 327 332 334 334 335 334 335 334 336 343 337 340 342 347 348 347 347 348 348
317 321 320 319 317 317 322 325 323 327 331 329 328 328 328 327 327 327 327 327 324 325 326 327 331 331 331 327 330 335 333 329 330 330 331 335 336 337 342 346 345 345 346 348 349
319 321 319 317 317 318 322 322 322 328 327 326 330 327 329 328 327 327 328 327 326 325 326 328 333 332 331 330 330 332 331 331 332 335 337 336 336 336 339 344 344 345 348 350 350
321 326 322 320 317 319 321 321 321 326 327 328 329 329 328 327 327 328 328 328 327 327 327 328 330 334 334 333 333 331 331 331 331 333 335 335 334 337 340 343 345 346 346 346 347
322 326 324 319 320 320 321 321 320 324 327 328 328 329 329 327 327 328 329 329 327 327 327 328 329 332 333 335 334 336 333 333 334 338 338 335 334 337 342 343 344 345 344 343 343
325 325 325 322 323 322 323 322 324 323 325 328 328 328 328 329 329 327 329 327 326 327 329 329 329 334 334 333 334 334 333 333 333 333 335 336 338 340 344 345 345 344 343 343 343
326 327 329 327 328 328 327 324 324 325 326 327 328 329 329 329 329 329 329 327 326 327 330 332 330 332 333 333 332 333 333 333 331 333 334 334 334 338 340 345 346 346 344 341 345
325 328 326 330 330 329 329 329 328 327 327 328 329 330 332 333 329 328 327 329 327 331 329 330 331 331 331 330 329 329 329 332 333 332 333 333 334 332 338 339 344 345 342 344 344
325 325 323 324 324 326 323 327 328 328 328 328 330 330 329 332 331 332 333 330 331 328 328 328 331 332 331 329 328 327 327 328 330 330 332 332 332 331 339 342 344 345 344 344 343
318 319 323 321 323 324 323 324 326 328 326 327 328 330 330 330 331 331 331 331 330 330 329 329 330 331 331 329 328 329 328 329 329 330 330 331 331 338 342 345 345 343 342 342 342
Wind_Speed
14 12 11 10 8 8 7 6 6 6 5 5 5 6 6 5 6 4 8 3 6 13 14 11 8 5 5 2 0 3 3 6 6 9 8 9 12 5 2 11 3 3 7 21 21
16 15 12 10 8 7 7 6 6 6 5 5 5 5 5 4 6 9 6 10 10 14 13 12 7 5 3 2 2 3 2 3 3 4 6 6 9 6 8 8 5 10 15 22 20
18 16 12 9 8 7 7 6 5 5 5 4 3 3 4 3 6 3 7 14 13 14 8 5 3 6 1 2 2 3 3 7 9 7 2 6 7 2 10 5 6 13 17 18 17
19 15 13 10 8 7 8 7 6 4 4 3 2 2 3 3 3 4 11 13 12 8 9 6 5 3 2 2 4 6 5 4 5 6 2 6 5 3 3 9 9 13 16 15 13
23 18 13 11 10 9 8 8 4 2 1 1 1 0 1 6 7 3 12 12 10 7 10 6 5 2 3 3 7 9 4 7 4 3 5 7 6 5 6 5 13 14 14 13 12
24 21 16 13 10 9 9 7 4 1 2 2 1 1 4 6 1 4 11 12 9 9 8 6 4 3 3 3 3 9 8 8 3 4 4 5 7 6 10 8 13 14 13 12 11
26 22 18 14 12 10 10 8 3 1 3 3 2 1 6 7 3 6 10 12 8 9 7 2 2 7 2 8 6 12 10 9 6 3 1 2 7 5 6 10 12 14 11 10 9
26 24 19 16 13 12 13 13 7 4 3 2 1 3 3 4 6 8 8 8 7 7 3 3 5 4 4 11 9 2 5 3 8 8 0 4 2 0 7 10 12 13 11 10 9
27 25 21 18 15 13 11 6 1 6 3 3 2 5 7 5 7 10 9 9 11 8 3 3 6 2 5 10 9 4 5 4 6 7 2 2 5 10 5 9 12 12 12 11 10
28 27 22 19 16 12 5 2 6 4 2 2 5 5 7 4 12 11 8 11 8 8 6 8 6 9 7 6 5 7 7 2 5 8 8 9 9 12 8 7 9 12 12 10 11
30 28 24 22 16 10 1 1 5 5 7 6 3 3 7 10 13 11 12 9 8 11 10 9 10 8 3 3 5 5 5 5 5 8 6 7 4 4 4 5 9 11 11 12 11
31 30 26 24 15 6 3 5 5 5 5 5 6 5 3 9 11 11 12 11 11 14 7 7 12 1 5 7 7 6 4 9 5 7 7 5 7 6 9 6 8 9 10 11 11
33 31 27 25 10 3 6 3 1 5 6 7 5 6 10 13 11 14 14 7 13 14 13 15 4 5 8 10 8 6 4 4 5 7 4 4 8 9 13 14 10 13 12 10 12
37 32 29 21 1 3 5 5 4 4 5 10 10 7 8 7 7 5 16 9 7 13 11 11 11 8 9 10 7 7 3 3 8 8 3 5 2 7 11 17 16 16 15 15 13
38 35 28 14 5 5 4 1 2 4 4 10 8 8 10 8 13 9 10 8 11 9 9 8 10 11 12 11 4 2 2 6 7 4 6 9 6 6 6 12 15 16 16 14 13
39 35 19 4 6 3 3 2 4 7 4 9 10 12 13 11 7 11 12 8 3 6 11 8 0 4 4 1 4 7 6 4 6 6 10 8 7 8 5 3 2 5 14 15 14
40 22 6 4 1 2 4 5 6 8 4 9 11 11 15 10 10 12 14 15 10 11 12 13 12 6 7 10 8 8 12 6 4 6 2 7 5 5 6 4 1 1 2 6 12
39 7 5 1 4 2 9 8 9 2 7 4 5 8 11 11 11 13 13 13 15 11 7 12 13 13 11 13 7 11 9 7 3 5 3 5 4 4 2 5 3 2 2 3 6
24 3 2 4 4 5 9 12 6 6 1 4 7 12 13 10 7 12 15 13 13 17 9 10 5 5 6 4 9 8 10 6 8 5 8 3 2 10 6 7 6 2 0 1 2
12 2 6 5 1 8 9 13 3 4 3 5 9 6 15 15 12 11 12 12 13 13 17 4 8 6 6 7 4 9 3 7 7 4 5 6 4 5 2 4 5 1 1 1 0
5 3 5 6 2 6 9 9 6 6 4 4 4 6 8 6 14 10 7 9 15 17 13 12 9 11 9 9 7 7 10 8 8 5 8 6 2 6 1 4 4 4 3 4 3
7 3 6 1 5 3 8 4 1 7 4 5 6 8 8 5 11 9 11 12 12 13 14 16 9 9 5 6 1 3 9 7 8 6 3 7 8 6 3 3 3 6 4 2 3
6 3 3 3 4 7 4 7 5 7 8 4 6 5 3 7 6 10 6 2 10 14 11 12 11 7 10 10 7 8 9 9 9 8 12 9 3 7 6 6 6 5 3 2 1
4 2 3 2 2 5 4 9 10 6 9 5 6 5 7 10 10 6 9 4 10 14 5 10 15 12 9 3 2 7 10 12 13 10 7 9 1 10 7 9 8 7 3 2 1
3 4 3 2 3 6 5 3 8 7 5 4 5 3 3 6 10 11 13 6 8 4 8 14 14 13 12 5 5 10 9 12 14 13 9 2 4 2 3 4 7 8 6 3 2
5 4 4 5 3 6 3 5 8 4 4 7 9 2 5 5 4 6 7 8 8 8 8 11 11 8 13 7 8 10 11 11 14 14 8 13 10 6 7 5 8 9 7 5 3
7 4 5 1 4 5 3 4 4 4 6 8 7 8 9 6 7 11 13 14 10 10 12 10 8 10 14 10 9 13 14 13 13 12 14 14 10 8 8 10 10 9 7 5 2
Wind_Direction
344 334 326 319 313 309 304 300 301 300 300 293 292 305 311 297 289 266 233 207 184 172 155 162 182 182 199 168 265 271 219 192 171 139 125 132 127 96 85 140 80 35 148 136 147
348 345 337 327 318 310 308 302 301 299 293 289 295 309 314 305 278 246 240 177 172 170 174 182 179 203 189 131 187 287 150 89 65 84 115 127 140 125 149 146 101 118 111 137 151
356 354 350 343 340 330 321 314 308 302 294 289 292 308 312 316 245 118 192 169 167 167 202 212 213 251 252 78 54 39 100 110 76 80 221 122 145 67 149 135 122 141 140 150 156
5 2 359 357 351 347 335 323 310 300 294 276 268 295 306 241 175 105 162 168 166 183 198 202 220 234 340 70 111 102 79 85 102 67 99 131 105 168 167 37 124 139 148 156 164
13 7 1 358 356 355 350 350 335 310 260 209 192 313 185 212 91 140 170 170 178 192 206 214 249 277 28 94 93 105 153 95 114 58 69 161 158 88 135 85 128 133 153 165 169
13 11 4 356 351 347 345 355 6 78 161 165 171 157 246 194 87 167 172 180 202 203 209 237 316 307 75 71 345 113 127 139 120 36 58 141 127 196 114 135 139 149 156 166 170
12 9 6 359 347 333 332 329 321 194 167 162 165 282 248 63 146 169 179 191 203 210 209 230 329 260 144 112 110 129 121 129 109 352 348 205 125 93 139 151 152 165 163 163 168
10 6 4 356 345 336 328 315 264 218 189 173 171 259 58 122 151 160 174 186 200 194 264 297 267 264 312 128 142 150 154 171 145 183 109 250 51 301 187 174 170 171 172 178 174
6 2 358 355 343 339 340 356 189 188 168 144 261 256 128 140 187 165 171 176 170 190 223 293 228 266 178 225 169 182 62 91 144 202 153 137 198 226 194 199 187 179 178 186 181
2 359 355 351 340 337 358 57 105 113 169 248 260 235 162 171 152 160 171 156 171 174 190 220 229 227 212 221 349 73 78 80 116 171 209 178 177 140 166 198 210 187 186 193 190
357 355 350 348 337 330 131 206 207 179 211 294 71 332 132 122 148 174 172 179 177 203 209 205 246 216 309 333 18 324 7 68 90 152 182 217 192 229 193 208 210 196 201 199 209
353 350 344 344 334 308 207 270 36 3 290 208 249 253 183 167 161 155 173 193 198 206 210 201 240 115 303 294 270 298 307 94 102 143 194 186 229 213 150 229 234 231 214 212 204
350 346 340 341 329 235 244 276 176 321 253 156 185 192 171 191 186 172 199 196 206 217 215 246 91 26 282 265 259 242 311 127 91 157 191 249 225 202 199 203 229 236 253 221 229
348 344 335 341 178 178 222 179 265 265 255 142 186 163 169 211 186 191 204 199 205 224 230 251 259 256 282 261 251 253 12 171 152 212 98 228 152 166 183 202 221 231 231 240 229
346 340 328 322 292 226 131 227 231 226 255 140 131 139 159 207 126 173 183 195 228 194 215 199 205 225 239 243 290 341 172 171 196 222 264 158 254 110 177 208 225 231 232 235 233
344 336 326 335 207 227 201 252 223 231 213 156 151 180 179 201 171 144 182 228 326 206 222 278 132 263 274 298 186 131 147 155 200 230 232 90 301 147 152 235 137 214 229 240 244
343 337 340 197 40 227 220 212 227 245 138 169 186 180 205 175 171 180 190 200 208 203 206 208 211 179 188 137 158 214 215 203 176 236 163 84 259 325 122 178 196 315 232 242 229
343 351 32 196 277 279 203 211 233 301 218 115 194 194 209 190 213 196 196 213 215 246 232 204 172 193 185 247 218 222 294 298 267 267 112 132 240 100 117 155 174 203 307 287 233
351 352 333 335 236 210 214 213 213 236 126 224 187 221 201 208 241 203 215 218 201 209 246 204 181 137 204 216 262 158 233 0 291 223 265 149 190 224 177 196 195 227 166 293 348
336 285 39 45 94 223 222 229 223 253 289 234 242 214 218 193 200 202 191 209 205 203 238 204 184 179 154 178 176 280 109 214 202 252 250 137 271 291 202 208 193 193 117 100 75
306 237 34 325 264 212 219 223 230 218 263 262 233 235 239 209 220 201 228 195 211 189 208 233 254 151 180 213 181 175 214 234 305 313 307 289 329 65 333 172 149 118 85 71 14
316 208 9 287 209 233 230 237 295 225 200 260 276 276 256 194 214 220 228 240 181 175 199 214 236 194 194 111 302 272 283 251 250 190 214 303 293 87 144 159 159 142 144 110 9
329 317 1 260 240 210 186 230 255 237 231 245 249 245 291 247 241 225 225 287 189 199 197 179 230 197 191 179 189 228 205 247 265 291 271 285 107 116 160 195 195 199 191 207 294
300 278 118 80 351 296 259 233 232 208 260 270 287 268 258 248 241 265 230 160 205 220 6 219 237 229 238 10 17 200 220 228 243 246 247 229 293 157 185 200 210 209 215 202 144
350 55 9 358 108 330 287 306 248 232 231 250 225 246 294 262 250 230 247 171 192 182 207 222 232 234 255 286 259 278 267 213 229 253 267 278 230 281 98 202 199 207 190 195 183
339 341 335 287 285 278 181 240 260 236 255 202 251 29 288 279 307 334 337 271 210 190 211 223 233 207 241 218 241 250 243 229 228 249 246 271 267 300 125 160 174 183 200 210 211
1 325 285 213 280 259 259 268 269 300 256 266 302 307 278 303 328 296 286 281 273 270 205 211 203 210 240 202 230 243 239 229 236 229 243 254 260 136 164 161 169 175 188 197 208